Met observations

Date (UTC) Wind direction m/s kts. Vis. * Weather * Cloud * Temperature (°C) Dew point (°C) Air pressure (Hp)
15-10 17:51 13 26 VIS 10 km FEW 800ft BKN 1500ft 9.4 7.4 1001.8
15-10 17:41 14 27 VIS 10 km FEW 800ft BKN 1500ft 9.5 7.4 1001.7
15-10 17:31 12 24 VIS 10 km FEW 800ft BKN 1500ft 9.5 7.4 1001.8
15-10 17:21 13 25 VIS 10 km FEW 800ft BKN 1500ft 9.5 7.4 1001.8
15-10 17:11 12 23 VIS 10 km FEW 800ft BKN 1500ft 9.6 7.4 1001.8
15-10 17:01 11 22 VIS 10 km FEW 800ft BKN 1500ft 9.6 7.4 1001.9
15-10 16:51 12 23 VIS 10 km FEW 800ft BKN 1500ft 9.6 7.5 1001.9
15-10 16:41 12 23 VIS 10 km FEW 800ft BKN 1500ft 9.7 7.5 1001.8
15-10 16:31 13 25 VIS 10 km FEW 800ft BKN 1500ft 9.8 7.5 1001.9
15-10 16:21 12 23 VIS 10 km FEW 800ft BKN 1500ft 9.8 7.4 1001.8
15-10 16:11 13 26 VIS 10 km FEW 800ft BKN 1500ft 9.9 7.6 1001.9
15-10 16:01 13 25 VIS 10 km FEW 800ft BKN 1500ft 9.9 7.6 1001.9
15-10 15:51 12 24 VIS 10 km FEW 800ft BKN 1500ft 9.8 7.6 1001.8
15-10 15:41 14 28 VIS 10 km FEW 800ft BKN 1500ft 9.8 7.7 1001.9
15-10 15:31 14 27 VIS 10 km FEW 800ft BKN 1500ft 9.7 7.8 1002.1
15-10 15:21 13 25 VIS 10 km FEW 800ft BKN 1500ft 10.0 8.2 1002.1
15-10 15:11 13 25 VIS 10 km FEW 800ft BKN 1500ft 9.8 8.1 1002.2
15-10 15:01 12 23 VIS 10 km FBL SHRA FEW 700ft FEW 1500ft 9.6 8.1 1002.4
15-10 14:51 12 24 VIS 10 km FBL SHRA FEW 700ft FEW 1500ft 9.6 8.0 1002.5
15-10 14:41 13 25 VIS 10 km FBL SHRA FEW 700ft FEW 1500ft 9.5 8.0 1002.6
15-10 14:31 12 24 VIS 10 km FBL SHRA FEW 700ft FEW 1500ft 9.6 8.0 1002.6
15-10 14:21 14 27 VIS 10 km FBL SHRA FEW 700ft FEW 1500ft 9.6 7.8 1002.6
15-10 14:11 13 26 VIS 10 km FBL SHRA FEW 700ft FEW 1500ft 9.7 7.9 1002.6
15-10 14:01 13 25 VIS 10 km FBL SHRA FEW 700ft FEW 1500ft 9.8 7.7 1002.5
15-10 13:51 12 24 VIS 10 km FBL SHRA FEW 700ft FEW 1500ft 9.8 7.8 1002.6
15-10 13:41 13 25 VIS 10 km FBL SHRA FEW 700ft FEW 1500ft 9.9 7.9 1002.6
15-10 13:31 13 26 VIS 10 km FBL SHRA FEW 700ft FEW 1500ft 9.9 7.9 1002.5
15-10 13:21 13 25 VIS 10 km FBL SHRA FEW 700ft FEW 1500ft 9.7 7.8 1002.7
15-10 13:11 13 26 VIS 10 km FBL SHRA FEW 700ft FEW 1500ft 9.6 7.7 1002.8
15-10 13:01 13 25 VIS 10 km FBL SHRA FEW 700ft FEW 1500ft 9.7 7.5 1003.0
15-10 12:51 13 26 VIS 10 km FBL SHRA FEW 700ft FEW 1500ft 9.5 7.9 1003.1
15-10 12:41 14 27 VIS 10 km FBL SHRA FEW 700ft FEW 1500ft 9.4 7.9 1003.1
15-10 12:31 15 29 VIS 10 km FBL SHRA FEW 700ft FEW 1500ft 9.3 7.9 1003.2
15-10 12:21 13 25 VIS 10 km SCT 1400ft BKN 5000ft 9.6 7.7 1003.2
15-10 12:11 14 28 VIS 10 km SCT 1400ft BKN 5000ft 9.5 7.6 1003.1
15-10 12:01 14 28 VIS 10 km SCT 1400ft BKN 5000ft 9.6 7.7 1003.3
15-10 11:51 15 30 VIS 10 km SCT 1400ft BKN 5000ft 9.6 7.7 1003.3
15-10 11:41 14 28 VIS 10 km SCT 1400ft BKN 5000ft 9.5 7.5 1003.4
15-10 11:31 14 27 VIS 10 km SCT 1400ft BKN 5000ft 9.5 7.5 1003.6
15-10 11:21 14 27 VIS 10 km SCT 1400ft BKN 5000ft 9.5 7.5 1003.6
15-10 11:11 13 26 VIS 10 km SCT 1400ft BKN 5000ft 9.4 7.7 1003.7
15-10 11:01 15 29 VIS 10 km SCT 1400ft BKN 5000ft 9.4 7.7 1003.8
15-10 10:51 13 26 VIS 10 km SCT 1400ft BKN 5000ft 9.4 7.8 1003.8
15-10 10:41 13 25 VIS 10 km SCT 1400ft BKN 5000ft 9.4 7.8 1003.9
15-10 10:31 12 23 VIS 10 km SCT 1400ft BKN 5000ft 9.3 7.7 1004.0
15-10 10:21 13 25 VIS 10 km SCT 1400ft BKN 5000ft 9.2 7.7 1004.2
15-10 10:11 12 23 VIS 10 km SCT 1400ft BKN 5000ft 9.3 7.7 1004.2
15-10 10:01 12 23 VIS 10 km SCT 1400ft BKN 5000ft 9.3 7.7 1004.3
15-10 09:51 11 21 VIS 10 km SCT 1400ft BKN 5000ft 9.4 7.6 1004.3
15-10 09:41 9 18 VIS 10 km SCT 1400ft BKN 5000ft 9.5 7.1 1004.3
15-10 09:31 10 20 VIS 10 km SCT 1400ft BKN 5000ft 9.3 7.1 1004.2
15-10 09:21 9 18 VIS 10 km SCT 1400ft BKN 5000ft 9.3 7.1 1004.3
15-10 09:11 9 18 VIS 10 km SCT 1400ft BKN 5000ft 9.0 6.9 1004.4
15-10 09:01 9 17 VIS 10 km SCT 1400ft BKN 5000ft 9.0 7.1 1004.4
15-10 08:51 9 17 VIS 10 km SCT 1400ft BKN 5000ft 9.1 6.9 1004.5
15-10 08:41 9 17 VIS 10 km SCT 1400ft BKN 5000ft 8.9 6.7 1004.6
15-10 08:31 8 16 VIS 10 km SCT 1400ft BKN 5000ft 8.8 6.7 1004.7
15-10 08:21 8 16 VIS 10 km SCT 1400ft BKN 5000ft 8.7 6.8 1004.9
15-10 08:11 9 18 VIS 10 km SCT 1400ft BKN 5000ft 8.6 6.9 1004.9
15-10 08:01 9 17 VIS 10 km SCT 1400ft BKN 5000ft 8.5 6.8 1004.9
15-10 07:51 9 17 VIS 10 km SCT 1400ft BKN 5000ft 8.5 6.7 1004.9
15-10 07:41 8 15 VIS 10 km SCT 1400ft BKN 5000ft 8.3 6.6 1005.0
15-10 07:31 10 19 VIS 10 km SCT 1400ft BKN 5000ft 8.3 6.7 1005.0
15-10 07:21 9 17 VIS 10 km SCT 1400ft BKN 5000ft 8.2 6.8 1005.0
15-10 07:11 9 18 VIS 10 km SCT 1400ft BKN 5000ft 8.2 6.9 1005.0
15-10 07:01 8 15 VIS 10 km SCT 1400ft BKN 5000ft 8.1 6.9 1005.0
15-10 06:51 7 13 VIS 10 km SCT 1400ft BKN 5000ft 8.0 6.9 1005.0
15-10 06:41 7 14 VIS 10 km SCT 1400ft BKN 5000ft 8.0 6.7 1005.0
15-10 06:31 7 14 VIS 10 km SCT 1400ft BKN 5000ft 7.9 6.8 1005.1
15-10 06:21 7 14 VIS 10 km SCT 1400ft BKN 5000ft 8.0 7.2 1005.1
15-10 06:11 7 14 VIS 10 km SCT 1400ft BKN 5000ft 8.2 7.2 1005.3
15-10 06:01 8 16 VIS 10 km SCT 1400ft BKN 5000ft 8.1 7.2 1005.3
15-10 05:51 8 16 VIS 10 km SCT 1400ft BKN 5000ft 8.3 7.4 1005.3
15-10 05:41 8 16 VIS 10 km SCT 1400ft BKN 5000ft 8.2 7.4 1005.3
15-10 05:31 9 18 VIS 10 km SCT 1400ft BKN 5000ft 8.4 7.7 1005.5
15-10 05:21 9 17 VIS 10 km SCT 1400ft BKN 5000ft 8.3 7.6 1005.6
15-10 05:11 7 14 VIS 10 km SCT 1400ft BKN 5000ft 8.2 7.4 1005.6
15-10 05:01 8 16 VIS 10 km SCT 1400ft BKN 5000ft 8.2 7.4 1005.6
15-10 04:51 8 15 VIS 10 km SCT 1400ft BKN 5000ft 8.2 7.3 1005.6
15-10 04:41 8 15 VIS 10 km SCT 1400ft BKN 5000ft 8.4 7.5 1005.7
15-10 04:31 8 15 VIS 10 km SCT 1400ft BKN 5000ft 8.6 7.7 1005.8
15-10 04:21 7 13 VIS 10 km SCT 1400ft BKN 5000ft 8.8 7.8 1005.9
15-10 04:11 8 15 VIS 10 km SCT 1400ft BKN 5000ft 8.9 7.8 1005.9
15-10 04:01 8 16 VIS 10 km SCT 1400ft BKN 5000ft 8.8 7.8 1005.9
15-10 03:51 8 15 VIS 10 km SCT 1400ft BKN 5000ft 8.8 7.7 1006.0
15-10 03:41 7 14 VIS 10 km SCT 1400ft BKN 5000ft 9.0 7.7 1006.1
15-10 03:31 9 17 VIS 10 km SCT 1400ft BKN 5000ft 9.0 7.7 1006.2
15-10 03:21 8 16 VIS 10 km SCT 1400ft BKN 5000ft 9.0 7.6 1006.3
15-10 03:11 8 16 VIS 10 km SCT 1400ft BKN 5000ft 9.0 7.8 1006.4
15-10 03:01 9 18 VIS 10 km SCT 1400ft BKN 5000ft 8.9 7.9 1006.4
15-10 02:51 8 16 VIS 10 km SCT 1400ft BKN 5000ft 9.0 7.8 1006.3
15-10 02:41 9 18 VIS 10 km SCT 1400ft BKN 5000ft 8.9 7.9 1006.4
15-10 02:31 9 18 VIS 10 km SCT 1400ft BKN 5000ft 9.0 8.0 1006.4
15-10 02:21 8 16 VIS 10 km SCT 1400ft BKN 5000ft 9.0 8.0 1006.4
15-10 02:11 11 22 VIS 10 km SCT 1400ft BKN 5000ft 9.0 7.9 1006.5
15-10 02:01 9 18 VIS 10 km SCT 1400ft BKN 5000ft 9.0 7.8 1006.6
15-10 01:51 9 18 VIS 10 km SCT 1400ft BKN 5000ft 9.0 7.9 1006.5
15-10 01:41 8 16 VIS 10 km SCT 1400ft BKN 5000ft 8.9 8.0 1006.6
15-10 01:31 10 19 VIS 10 km SCT 1400ft BKN 5000ft 8.8 8.0 1006.6
15-10 01:21 9 17 VIS 10 km SCT 1400ft BKN 5000ft 8.5 7.9 1006.6
15-10 01:11 9 18 VIS 10 km SCT 1400ft BKN 5000ft 8.5 7.8 1006.6
15-10 01:01 8 16 VIS 10 km SCT 1400ft BKN 5000ft 8.6 7.9 1006.7
15-10 00:51 9 18 VIS 10 km SCT 1400ft BKN 5000ft 8.5 7.8 1006.7
15-10 00:41 10 19 VIS 10 km SCT 1400ft BKN 5000ft 8.5 7.7 1006.7
15-10 00:31 9 18 VIS 10 km SCT 1400ft BKN 5000ft 8.5 7.6 1006.7
15-10 00:21 8 16 VIS 10 km SCT 1400ft BKN 5000ft 8.6 7.6 1006.8
15-10 00:11 9 18 VIS 10 km SCT 1400ft BKN 5000ft 8.6 7.6 1006.8
15-10 00:01 8 16 VIS 10 km SCT 1400ft BKN 5000ft 8.6 7.6 1006.8
14-10 23:51 9 18 VIS 10 km SCT 1400ft BKN 5000ft 8.6 7.5 1006.8
14-10 23:41 9 17 VIS 10 km SCT 1400ft BKN 5000ft 8.6 7.5 1006.9
14-10 23:31 9 18 VIS 10 km SCT 1400ft BKN 5000ft 8.5 7.5 1006.9
14-10 23:21 9 17 VIS 10 km SCT 1400ft BKN 5000ft 8.5 7.4 1006.9
14-10 23:11 9 17 VIS 10 km SCT 1400ft BKN 5000ft 8.5 7.4 1007.0
14-10 23:01 9 17 VIS 10 km SCT 1400ft BKN 5000ft 8.5 7.2 1007.0
14-10 22:51 9 17 VIS 10 km SCT 1400ft BKN 5000ft 8.2 7.0 1007.0
14-10 22:41 8 16 VIS 10 km SCT 1400ft BKN 5000ft 8.3 6.9 1007.0
14-10 22:31 9 18 VIS 10 km SCT 1400ft BKN 5000ft 8.3 6.9 1007.1
14-10 22:21 9 17 VIS 10 km SCT 1400ft BKN 5000ft 8.4 6.9 1007.1
14-10 22:11 8 16 VIS 10 km SCT 1400ft BKN 5000ft 8.2 6.7 1007.0
14-10 22:01 9 18 VIS 10 km SCT 1400ft BKN 5000ft 8.2 6.7 1007.1
14-10 21:51 9 17 VIS 10 km SCT 1400ft BKN 5000ft 8.2 6.5 1007.1
14-10 21:41 9 17 VIS 10 km SCT 1400ft BKN 5000ft 8.1 6.4 1007.1
14-10 21:31 8 16 VIS 10 km FEW 2000ft BKN 4000ft 7.9 6.4 1007.2
14-10 21:21 7 13 VIS 10 km FEW 2000ft BKN 4000ft 7.8 6.3 1007.3
14-10 21:11 7 14 VIS 10 km FEW 2000ft BKN 4000ft 7.8 6.1 1007.3
14-10 21:01 8 16 VIS 10 km FEW 2000ft BKN 4000ft 7.9 6.1 1007.4
14-10 20:51 8 15 VIS 10 km FEW 2000ft BKN 4000ft 7.7 5.9 1007.4
14-10 20:41 8 15 VIS 10 km FEW 2000ft BKN 4000ft 7.7 5.8 1007.4
14-10 20:31 7 13 VIS 10 km FEW 2000ft BKN 4000ft 7.7 5.7 1007.6
14-10 20:21 8 16 VIS 10 km FEW 2000ft BKN 4000ft 7.7 5.6 1007.6
14-10 20:11 8 15 VIS 10 km FEW 2000ft BKN 4000ft 7.6 5.5 1007.6
14-10 20:01 7 14 VIS 10 km FEW 2000ft BKN 4000ft 7.6 5.5 1007.6
14-10 19:51 6 12 VIS 10 km FEW 2000ft BKN 4000ft 7.6 5.4 1007.6
14-10 19:41 7 14 VIS 10 km FEW 2000ft BKN 4000ft 7.6 5.2 1007.6
14-10 19:31 7 13 VIS 10 km FEW 2000ft BKN 4000ft 7.2 5.1 1007.6
14-10 19:21 7 13 VIS 10 km FEW 2000ft BKN 4000ft 7.2 5.1 1007.7
14-10 19:11 7 13 VIS 10 km FEW 2000ft BKN 4000ft 6.8 5.0 1007.8
14-10 19:01 7 13 VIS 10 km SCT 3000ft 5.8 4.4 1007.8
14-10 18:51 6 12 VIS 10 km SCT 3000ft 5.3 3.8 1007.8
14-10 18:41 6 12 VIS 10 km FEW 1700ft 5.9 4.1 1007.7
14-10 18:31 7 13 VIS 10 km FEW 1700ft 6.0 4.1 1007.6
14-10 18:21 6 12 VIS 10 km FEW 1700ft 6.5 4.4 1007.6
14-10 18:11 6 11 VIS 10 km FEW 1700ft 6.3 4.3 1007.6
14-10 18:01 7 13 VIS 10 km FEW 1700ft 6.8 4.8 1007.6

Met data is updated every half hour and is for information only.
* Visibility, weather and cloud values are updated during the airport’s service hours only.
Flight planning documentation is available on opmet.dmi.dk.
For meteorological abbreviations, click here